EHI
0 0 0 0 0 0 0 0 0 0 0 1 1 2 3 3 2 1 2 8 21 24 17 17 29 40 45 47 45 39 31 26 22 17 11 6 4 2 1 0 0 0 0 0 0 0 0 0 0
0 0 0 0 0 0 0 0 0 0 0 1 2 2 3 3 3 3 4 11 25 29 20 18 29 40 47 47 44 36 28 22 19 14 10 5 3 2 1 0 0 0 0 0 0 0 0 0 0
0 0 0 0 0 0 0 0 0 0 0 1 3 3 3 4 4 5 7 15 29 33 23 21 31 42 46 45 39 32 24 18 14 9 7 4 2 1 1 0 0 0 0 0 0 0 0 0 0
0 0 0 0 0 0 0 0 0 0 0 2 5 7 6 5 6 10 15 23 33 34 25 25 35 42 42 38 33 28 22 15 9 6 5 4 3 2 2 1 0 0 0 0 0 0 0 0 0
0 0 0 0 0 0 0 0 0 1 2 5 10 12 11 9 12 18 22 27 36 38 29 28 37 40 37 33 29 25 19 13 8 4 4 5 4 3 3 1 0 0 0 0 0 0 0 0 0
0 0 0 0 0 0 0 0 1 3 6 9 14 17 17 16 18 23 24 26 36 42 34 29 33 35 34 32 28 22 16 11 7 4 4 5 5 4 3 2 1 0 0 0 0 0 0 0 0
0 0 0 0 0 0 0 0 1 4 7 9 14 18 19 20 22 25 25 26 35 41 37 29 27 27 28 27 26 21 14 9 7 4 3 4 4 3 2 2 1 0 0 0 0 0 0 0 0
0 0 0 0 0 0 0 0 1 3 6 8 12 17 21 24 27 30 31 28 31 35 33 28 23 21 20 19 19 18 13 10 7 4 3 3 2 1 1 1 0 0 0 0 0 0 0 0 0
0 0 0 0 0 0 0 0 0 3 7 10 14 20 26 33 37 39 36 28 24 24 24 24 22 19 16 14 12 12 12 9 6 3 3 3 1 0 0 0 0 0 0 0 1 1 1 0 0
0 0 0 0 0 0 0 0 1 4 8 12 19 28 35 39 41 40 35 26 19 16 16 18 18 17 16 14 11 10 9 6 4 2 1 1 0 0 0 0 0 0 0 0 1 2 2 1 0
0 0 0 0 0 0 0 0 2 4 7 11 22 34 40 40 37 34 30 22 16 15 14 14 14 14 14 13 12 10 8 5 3 1 0 0 0 0 0 0 0 0 0 0 1 1 1 1 0
0 0 1 1 0 0 0 1 2 4 6 11 23 37 42 40 35 30 25 19 15 16 16 14 13 12 11 10 10 9 7 5 2 1 0 0 0 0 0 0 0 0 0 0 0 0 0 0 0
0 1 2 2 1 1 2 3 4 4 7 14 25 35 38 36 32 28 22 18 16 16 16 15 12 10 9 8 8 6 4 2 1 0 0 0 0 0 0 0 0 0 0 0 0 0 0 0 0
0 1 2 2 2 2 3 3 4 4 7 15 23 26 26 26 25 24 20 17 15 14 13 12 10 8 7 6 4 3 2 0 0 0 0 0 0 0 0 0 0 0 0 0 0 0 0 0 0
0 0 1 1 1 2 2 2 2 3 6 13 17 16 15 17 18 18 18 16 13 12 12 10 7 5 4 3 3 2 2 0 0 0 0 0 0 0 0 0 0 0 0 0 0 0 0 0 0
0 0 0 0 0 0 0 0 2 4 7 10 11 10 10 11 11 14 17 17 14 12 12 10 8 5 3 2 2 2 1 0 0 0 0 0 0 0 0 0 0 0 0 0 0 0 0 0 0
0 0 0 0 0 0 0 0 2 5 7 7 7 7 8 8 8 10 14 16 14 12 11 10 9 6 3 1 1 1 0 0 0 0 0 0 0 0 0 0 0 0 0 0 0 0 0 0 0
0 0 0 0 0 0 0 1 3 5 6 5 4 4 5 5 7 8 11 12 11 9 9 8 7 5 2 0 0 0 0 0 0 0 0 0 0 0 0 0 0 0 0 0 0 0 0 0 0
0 0 0 0 0 0 1 2 4 5 5 4 3 2 2 3 5 6 7 7 7 7 7 6 4 2 1 0 0 0 0 0 0 0 0 0 0 0 0 0 0 0 0 0 0 0 0 0 0
0 0 0 0 0 0 1 2 3 4 4 4 3 3 2 2 2 3 4 5 5 6 5 4 3 2 1 0 0 0 0 0 0 0 0 0 0 0 0 0 0 0 0 0 0 0 0 0 0
0 0 0 0 0 0 0 1 1 2 2 3 3 3 3 2 1 2 2 2 3 4 4 2 2 1 1 0 1 1 0 0 0 0 0 0 0 0 0 0 0 0 0 0 0 0 0 0 0
0 0 0 0 0 0 0 0 0 0 1 2 3 3 3 1 1 2 3 2 2 3 3 2 1 0 0 0 1 1 0 0 0 0 0 0 0 0 0 0 0 0 0 0 0 0 0 0 0
0 0 0 0 0 0 0 0 0 0 0 1 2 3 2 1 1 2 2 2 2 3 3 2 1 0 0 0 0 0 0 0 0 0 0 0 0 0 0 0 0 0 0 0 0 0 0 0 0
0 0 0 0 0 0 0 0 0 0 0 0 1 1 2 2 1 1 1 1 1 2 3 2 1 0 0 0 0 0 0 0 0 0 0 0 0 0 0 0 0 0 0 0 0 0 0 0 0
0 0 0 0 0 0 0 0 0 0 0 0 0 0 1 2 1 0 0 0 1 2 3 2 1 0 0 0 0 0 0 0 0 0 0 0 0 0 0 0 0 0 0 0 0 0 0 0 0
0 0 0 0 0 0 0 0 0 0 0 0 0 0 1 1 1 0 0 0 1 3 2 1 0 0 0 0 0 0 0 0 0 0 0 0 0 0 0 0 0 0 0 0 0 0 0 0 0
0 0 0 0 0 0 0 0 0 0 0 0 0 1 1 1 0 0 0 1 2 3 2 0 0 0 0 0 0 0 0 0 0 0 0 0 0 0 0 0 0 0 0 0 0 0 0 0 0
0 0 0 0 0 0 0 0 0 0 0 0 0 1 2 2 2 1 0 1 2 2 1 0 0 0 0 0 0 0 0 0 0 0 0 0 0 0 0 0 0 0 0 0 0 0 0 0 0
0 0 0 0 0 0 0 0 0 0 0 0 0 0 1 3 3 2 0 1 1 1 0 0 0 0 0 0 0 0 0 0 0 0 0 0 0 0 0 0 0 0 0 0 0 0 0 0 0
0 0 0 0 0 0 0 0 0 0 0 0 0 0 1 3 3 2 0 0 1 0 0 0 0 0 1 1 1 0 0 0 0 0 0 0 0 0 0 0 0 0 0 0 0 0 0 0 0
Wind_Speed
6 3 1 1 3 3 2 2 2 1 1 1 3 3 3 2 2 2 2 11 15 15 11 14 16 16 17 16 16 16 16 15 15 14 14 13 12 12 11 11 10 10 9 10 10 10 10 10 10
4 3 1 2 4 2 4 2 2 2 3 3 2 2 2 1 2 4 6 10 15 14 10 12 16 16 17 16 16 16 16 15 14 14 13 12 11 11 10 10 9 9 9 9 9 9 10 10 10
4 1 2 3 2 2 4 2 3 2 3 3 2 1 1 2 3 4 6 13 13 11 9 12 18 17 16 16 15 15 15 14 14 13 12 11 11 10 9 9 8 8 8 8 9 9 9 9 9
2 2 3 3 1 4 4 4 3 3 2 1 2 2 3 3 1 6 12 14 13 10 8 11 18 17 16 15 15 14 14 14 13 12 12 11 10 10 9 8 8 7 7 8 8 8 8 8 8
3 3 4 2 4 4 3 3 3 3 3 2 3 2 2 5 7 13 13 13 12 8 7 9 16 16 16 15 15 14 13 13 12 12 11 10 10 9 9 8 8 7 7 7 7 7 7 7 6
4 4 3 2 4 4 3 1 2 2 2 3 3 3 2 4 8 11 12 10 10 9 7 7 15 16 15 15 14 13 13 12 11 11 10 10 9 9 8 7 7 7 7 6 6 6 5 5 5
3 3 1 3 3 4 2 1 1 2 3 2 2 4 3 4 6 9 10 10 8 8 6 5 6 10 13 14 14 13 12 11 11 10 9 9 8 8 8 7 6 6 6 6 6 5 5 4 3
4 3 1 2 3 4 1 1 1 2 3 2 2 5 4 6 8 9 10 9 7 6 6 5 5 5 5 7 12 12 12 11 10 10 10 9 9 8 8 6 6 6 5 5 5 5 4 4 3
3 4 2 4 4 4 1 1 1 3 4 3 2 2 5 11 12 11 10 8 7 7 5 5 5 5 4 5 8 9 11 10 9 8 9 7 3 3 4 6 7 6 6 5 5 5 4 3 2
4 2 6 5 4 3 2 1 1 2 3 3 4 5 9 11 12 12 12 11 10 9 6 4 5 4 4 5 4 3 3 4 3 2 3 2 2 1 3 3 6 6 6 6 5 4 3 2 0
5 6 5 4 3 2 1 1 2 3 1 3 5 10 11 10 10 9 9 9 9 7 7 5 4 4 4 2 3 2 2 2 2 3 2 2 1 0 0 0 1 2 3 1 1 1 1 1 1
4 6 4 3 1 1 2 3 2 2 1 1 5 8 10 10 9 9 8 7 7 6 6 5 5 4 3 2 2 2 2 2 2 2 3 2 1 1 1 0 0 0 0 1 0 0 1 1 1
4 3 1 0 3 3 4 3 3 1 1 4 7 7 8 8 7 6 5 5 6 7 6 6 5 5 4 3 2 3 2 2 2 2 2 3 2 2 1 1 1 1 1 1 1 0 0 1 1
3 1 1 2 2 2 4 2 2 1 2 4 6 6 6 6 5 5 6 6 6 6 5 5 5 5 4 3 3 3 3 2 2 2 2 3 2 2 1 1 1 0 1 1 1 1 0 0 1
0 1 2 1 2 2 4 3 1 1 3 4 4 4 4 3 4 5 5 6 6 5 4 5 6 5 5 4 4 3 3 3 2 2 2 3 3 2 2 2 1 1 1 2 1 1 1 0 1
2 3 2 2 1 2 3 2 1 2 2 3 3 3 3 2 3 4 5 5 5 4 4 4 5 5 5 3 3 3 3 3 2 2 2 3 3 3 2 2 1 1 2 2 1 1 1 1 1
3 2 3 3 0 2 3 3 1 2 2 1 1 2 3 3 2 3 4 5 5 4 4 5 5 5 5 4 3 3 3 2 2 2 2 2 3 3 3 2 2 2 2 2 1 2 1 1 1
4 3 3 3 1 2 2 2 1 2 3 2 2 1 1 2 3 3 4 4 5 4 4 6 5 5 5 4 3 3 3 2 2 2 2 2 2 3 3 2 2 2 2 2 2 2 1 1 1
4 3 5 3 1 2 2 2 3 3 3 3 3 2 2 1 2 3 3 4 5 4 4 6 6 4 4 3 3 3 2 1 1 1 2 2 3 3 3 3 2 2 2 2 2 1 2 2 1
4 3 3 1 1 2 1 2 2 3 3 4 4 3 3 3 3 3 3 4 5 4 4 5 6 5 4 3 2 2 3 2 2 1 2 2 2 3 3 3 2 2 2 2 2 2 1 1 2
3 5 4 3 2 3 1 3 2 2 2 3 4 4 4 5 5 4 4 4 6 6 6 6 6 5 4 4 4 3 3 3 2 2 1 2 1 2 2 3 3 2 2 2 1 2 2 1 1
4 3 4 4 3 1 1 3 5 3 3 5 6 6 5 5 5 5 6 6 6 6 6 6 5 5 5 5 5 5 4 3 2 1 1 1 2 1 2 3 3 3 2 2 1 2 1 2 0
3 4 5 4 3 2 2 1 7 1 4 7 8 8 7 7 7 7 8 8 7 6 6 6 5 5 4 4 5 5 4 2 2 2 2 2 2 2 2 2 2 2 2 2 2 2 2 1 2
6 6 6 5 5 2 1 1 7 4 7 6 7 8 8 8 7 7 7 7 6 6 6 6 6 4 4 5 5 6 6 5 4 2 2 1 1 1 1 2 2 2 1 2 2 2 2 2 2
4 6 4 5 4 4 2 2 9 7 6 7 9 9 8 8 8 8 8 8 8 8 7 7 7 5 5 5 5 5 5 5 5 4 3 2 1 0 0 1 1 1 1 2 2 2 2 2 2
4 6 6 4 4 5 2 5 8 5 4 4 5 6 7 8 8 9 9 9 9 9 8 8 7 6 6 6 5 4 5 4 3 3 3 3 2 2 2 1 1 1 1 1 1 1 2 2 2
5 3 4 6 2 2 5 6 8 1 1 4 5 6 8 9 10 10 9 9 9 9 9 9 9 7 6 6 5 5 5 4 4 4 3 2 2 2 2 2 2 2 2 2 2 2 2 2 2
4 8 5 5 4 3 5 5 5 5 5 6 7 9 9 9 9 9 9 9 9 9 8 8 8 8 7 6 6 5 5 5 4 4 4 3 3 2 2 2 2 2 2 2 2 2 2 3 3
4 4 5 4 4 5 3 8 7 8 9 10 11 11 11 11 11 10 9 9 8 7 8 8 8 7 6 7 6 5 5 4 4 4 4 3 3 3 3 3 3 3 3 3 3 3 4 4 4
5 7 8 5 4 4 3 10 6 6 7 8 10 10 9 10 9 9 9 8 8 9 8 9 9 8 8 7 6 6 5 4 4 4 4 4 4 4 4 3 3 4 4 3 4 5 4 5 5
Wind_Direction
159 146 138 77 53 42 304 251 186 179 161 158 140 141 157 187 220 254 115 140 136 143 151 153 150 146 142 137 134 132 131 131 131 131 132 134 135 135 136 135 132 128 124 119 117 116 114 112 111
140 152 90 58 74 34 289 228 179 194 173 150 133 126 127 142 97 112 130 142 140 143 146 152 152 149 145 142 140 138 137 136 136 137 137 138 139 139 138 135 133 131 127 124 122 121 118 115 115
153 167 86 72 100 192 257 233 181 170 164 155 131 80 84 97 126 137 141 140 135 139 142 156 154 152 149 146 145 143 142 142 143 143 144 145 145 144 141 139 138 135 132 129 127 125 123 121 119
131 57 55 65 263 238 236 246 194 166 129 112 110 67 61 28 107 129 134 140 136 137 142 158 155 153 152 151 150 149 149 150 150 150 152 153 152 151 149 149 145 142 138 136 134 131 129 127 125
68 76 55 11 277 269 267 249 194 169 157 137 124 108 52 18 86 118 133 140 138 134 143 157 157 156 157 156 156 156 156 157 158 158 160 161 160 159 159 159 157 154 150 145 141 139 138 134 130
58 63 67 310 287 284 285 272 167 141 116 91 106 109 58 77 108 129 135 136 136 136 141 153 161 160 161 160 160 161 163 165 165 165 167 168 168 168 169 170 171 170 165 160 155 149 149 145 137
105 97 171 252 279 289 272 5 69 96 100 93 112 112 105 115 122 128 129 129 133 136 136 144 158 163 165 164 164 165 168 170 170 171 173 175 176 179 180 183 187 183 180 177 173 167 165 163 153
137 104 298 264 249 263 256 38 11 75 99 77 89 136 156 158 139 127 125 127 134 137 141 146 151 150 155 163 168 169 173 175 175 177 180 184 187 190 193 191 197 196 198 198 196 194 191 185 179
116 75 259 243 224 246 184 87 30 58 96 83 72 120 147 146 138 133 133 132 146 156 152 152 151 145 144 155 174 173 176 179 179 183 188 187 189 196 203 207 208 209 214 219 220 217 211 208 210
119 168 236 230 213 214 190 129 100 92 89 97 93 106 131 143 146 150 157 159 164 169 169 158 152 147 145 165 156 152 159 160 158 153 170 157 156 199 209 228 225 223 223 228 232 233 227 212 242
174 209 242 260 243 202 166 97 60 127 155 198 159 150 148 151 154 163 168 166 166 164 169 163 154 151 153 146 138 134 123 127 141 152 145 132 134 173 206 114 276 259 230 232 252 255 248 202 182
194 245 237 282 342 89 136 128 94 101 190 132 144 147 148 154 167 171 171 169 159 162 172 161 156 157 160 142 148 146 137 142 153 155 150 146 152 165 164 167 187 32 123 167 155 261 262 263 238
217 262 275 344 73 83 86 90 112 95 124 110 124 126 140 150 156 161 163 156 159 170 172 165 159 161 152 145 158 152 150 156 159 153 167 164 161 173 170 166 165 151 130 161 150 155 226 266 273
224 203 4 40 77 82 105 68 67 74 87 109 126 140 147 152 152 149 164 166 165 161 163 160 160 154 150 154 156 148 148 149 152 159 163 156 154 159 150 128 103 94 122 120 106 123 138 18 299
31 65 12 21 95 138 111 44 1 130 94 101 112 133 131 126 142 154 168 164 161 159 157 160 153 143 151 156 162 152 148 148 151 147 145 145 142 138 129 118 100 87 88 89 83 71 64 349 310
47 52 349 297 103 156 130 240 229 125 111 118 123 134 138 140 151 151 157 156 152 146 145 149 142 132 133 137 137 132 131 133 133 133 136 141 139 132 126 116 103 87 76 82 91 72 59 2 335
26 348 282 292 266 123 144 215 224 146 134 141 144 157 154 171 160 149 153 153 145 143 141 127 120 128 131 126 115 114 112 113 121 121 121 131 132 126 121 110 99 90 79 70 75 72 78 14 331
261 267 265 264 277 105 134 220 212 181 172 174 199 197 189 191 178 163 143 133 126 127 139 127 127 133 127 111 98 89 85 84 95 113 122 124 123 124 115 106 99 97 86 67 63 71 59 37 326
228 229 257 263 163 123 173 216 223 211 196 196 212 216 213 187 152 145 145 148 138 129 133 134 138 143 134 123 123 119 115 102 86 98 115 118 124 126 124 121 111 107 101 93 88 88 59 23 0
217 229 242 261 115 124 170 261 236 214 213 212 214 212 188 163 140 136 157 168 146 140 153 151 155 154 149 137 128 126 121 110 96 72 83 99 126 137 142 138 134 125 111 95 85 94 91 22 27
218 197 206 188 105 60 55 325 262 241 214 217 218 210 197 186 171 165 168 174 149 161 170 167 159 149 140 128 113 93 74 61 59 54 51 38 104 142 143 147 141 137 130 136 129 125 130 118 14
232 218 158 138 121 319 72 287 276 230 238 224 217 209 207 194 179 174 171 180 177 178 165 157 149 140 138 136 136 135 135 141 160 136 91 47 60 104 142 145 148 147 144 150 163 135 134 135 138
162 77 87 95 107 50 17 236 284 217 234 231 218 213 208 196 188 183 181 186 183 174 162 153 146 143 143 142 140 132 128 136 124 105 93 66 43 53 102 138 148 154 156 167 168 145 143 151 168
115 74 57 52 63 351 257 203 279 230 219 217 210 209 203 195 189 183 180 175 176 165 157 153 151 152 149 143 141 145 147 147 138 135 128 93 48 33 61 115 134 153 164 181 185 176 171 178 182
89 88 30 357 4 265 251 232 255 249 221 201 199 201 194 187 183 177 176 179 180 173 169 164 161 163 159 152 155 161 160 158 161 165 165 159 156 182 187 124 145 165 195 199 185 186 198 194 200
174 139 156 206 237 282 304 247 257 263 231 196 188 182 178 183 187 188 188 185 183 178 173 169 170 172 169 167 171 170 165 162 168 173 173 181 190 203 201 186 200 213 218 213 197 209 224 210 218
138 153 151 127 132 303 286 283 298 275 183 183 180 176 188 192 194 195 190 187 183 179 180 179 177 178 180 178 172 175 176 176 179 178 177 186 200 207 202 205 213 231 235 227 209 224 237 229 233
134 140 105 118 146 266 293 280 255 236 212 200 195 198 202 196 197 195 191 190 188 185 179 174 178 184 183 180 182 185 186 186 181 173 186 199 208 208 206 222 231 243 243 230 217 232 236 234 244
127 114 111 116 152 163 258 273 231 211 199 195 203 204 202 199 199 197 194 189 183 174 172 177 182 180 182 186 188 185 186 185 182 190 204 204 207 208 216 226 232 241 245 237 227 239 240 240 251
164 166 149 154 203 178 185 266 269 216 205 195 201 205 203 201 201 197 189 179 177 179 181 185 185 186 191 187 183 188 186 182 191 207 215 209 215 219 222 226 233 243 245 240 236 250 248 244 253